MTI 1 26102U 00014A 21017.46740153 .00005392 00000-0 72434-4 0 9990 2 26102 97.4806 276.2501 0007499 144.1107 216.0658 15.58354901157818 CFESAT 1 30777U 07006F 21017.13567688 .00003450 00000-0 90324-4 0 9996 2 30777 35.4261 28.4472 0004858 318.0037 42.0317 15.38332394769359 SPIRALE A 1 33751U 09008C 21016.39554315 .00000082 00000-0 73331-3 0 9991 2 33751 2.0680 16.7518 5375164 4.8184 358.7703 4.58771908171068 SPIRALE B 1 33752U 09008D 21016.62672290 .00001198 00000-0 44300-3 0 9994 2 33752 2.1649 32.3372 6900470 320.0065 5.5268 2.76370424110649 SAPPHIRE 1 39088U 13009C 21016.82402925 .00000002 00000-0 16121-4 0 9990 2 39088 98.4531 219.7245 0011724 17.6817 342.4774 14.34230585413065